Regional Weather Roundup
Issued by NWS

Home | Current Version | Previous Version | Graphics & Text | Print | Product List | Glossary Off
Versions: 1 2 3 4 5 6 7 8 9 10 11 12 13 14 15 16 17 18 19 20 21 22 23 24 25 26 27 28 29 30 31 32 33 34 35 36 37 38 39 40 41 42 43 44 45 46 47 48 49 50

000
ASUS45 KBOU 041707
RWRCO

WEATHER ROUNDUP FOR COLORADO
NATIONAL WEATHER SERVICE DENVER/BOULDER CO
1100 AM MDT WED MAY 04 2016

NOTE: "FAIR" INDICATES FEW OR NO CLOUDS BELOW 12000 FEET WITH NO
SIGNIFICANT WEATHER AND/OR OBSTRUCTIONS TO VISIBILITY.

COZ001>005-013-030-031-041800-
...NORTHWEST COLORADO...

CITY           SKY/WX    TMP DP  RH WIND       PRES   REMARKS
CRAIG          FAIR      63  32  31 CALM      30.29F
HAYDEN         FAIR      61  27  27 CALM      30.30S
MEEKER         FAIR      67  30  25 VRB3      30.29F
MOUNT WERNER   NOT AVBL
STEAMBOAT SPGS FAIR      61  31  32 E3        30.31F
WALDEN         FAIR      54  27  35 S3        30.38F
$$

COZ006>008-011-041800-
...WEST CENTRAL VALLEYS...

CITY           SKY/WX    TMP DP  RH WIND       PRES   REMARKS
GRAND JUNCTION FAIR      65  30  27 SE8       30.24F
MONTROSE       FAIR      64  31  28 NW7       30.30F
EAGLE          SUNNY     57  25  28 CALM      30.35F
RIFLE          FAIR      63  29  27 CALM      30.27F
DELTA          NOT AVBL
NUCLA          NOT AVBL
$$

COZ017>023-064>068-041800-
...SOUTHWEST COLORADO...

CITY           SKY/WX    TMP DP  RH WIND       PRES   REMARKS
DURANGO        FAIR      61  34  36 VRB6      30.36S
CORTEZ         FAIR      68  34  28 SW8       30.30F
PAGOSA SPRINGS FAIR      58  26  29 W3        30.41S
TELLURIDE      FAIR      56  23  27 CALM      30.45S
WOLF CREEK PAS FAIR      39  21  48 CALM      30.61R
$$

COZ009-010-012-014-032>034-037-058>063-041800-
...CENTRAL COLORADO...

CITY           SKY/WX    TMP DP  RH WIND       PRES   REMARKS
ASPEN          FAIR      61  22  22 N6        30.35F
BUENA VISTA    FAIR      56  20  24 SE3       30.37F
COPPER MTN     NOT AVBL
BERTHOUD PASS  FAIR      34  27  75 N14G20    30.56S WCI  24
COTTONWOOD PAS FAIR      55  16  21 E7        30.46S
GUNNISON       FAIR      54  25  32 CALM      30.42F
KREMMLING      FAIR      55  25  30 E3        30.37F
LEADVILLE      FAIR      53   8  16 VRB7      30.43F
MONARCH PASS   FAIR      39  18  41 SW16      30.66S
SALIDA         FAIR      59  21  23 N5        30.43F
SUNLIGHT       FAIR      50  21  32 W3        30.54S
WILKERSON PASS FAIR      46  18  31 W7        30.55R
$$

COZ069>075-041800-
...SAN LUIS VALLEY/SANGRE DE CRISTO MOUNTAINS...

CITY           SKY/WX    TMP DP  RH WIND       PRES   REMARKS
ALAMOSA        FAIR      55  25  31 S6        30.39F
LA VETA PASS   FAIR      48  27  43 S8        30.49R
SAGUACHE       FAIR      54  25  32 S6        30.41F
$$

COZ035-036-038>040-041800-
...NORTHERN COLORADO FRONT RANGE...

CITY           SKY/WX    TMP DP  RH WIND       PRES   REMARKS
DENVER INTL AP FAIR      67  31  26 VRB3      30.25F
DMNS CITY PARK   N/A     68  28  22 E9G18     30.25S
AURORA         FAIR      66  31  27 VRB3      30.27S
FRONT RANGE AP SUNNY     64  32  29 CALM      30.27S
ERIE MUNI ARPT FAIR      65  32  29 CALM      30.24F
BOULDER MUN AP FAIR      66  34  30 SE5       30.24F
CENTENNIAL     FAIR      66  27  23 SE5       30.27F
BROOMFIELD     MOSUNNY   64  32  29 E3        30.26F
FORT COLLINS   FAIR      64  39  39 SE6       30.24F
LONGMONT       FAIR      70  37  30 CALM      30.25F
$$

COZ041-046-047-076>085-087-088-041800-
...PIKES PEAK/PALMER DIVIDE AND SOUTHERN FOOTHILLS...

CITY           SKY/WX    TMP DP  RH WIND       PRES   REMARKS
COLO. SPRINGS  FAIR      65  23  20 S8        30.30F
A. F. ACADEMY  FAIR      64  25  22 SE6       30.29F
SCHRIEVER AFB  NOT AVBL
ELLICOTT       FAIR     N/A N/A N/A W9        30.29S
FALCON         NOT AVBL
FORT CARSON    FAIR      67  28  23 S9        30.27S
LIMON          FAIR      65  35  33 CALM      30.27S
MONUMENT HILL  FAIR      61  27  27 NE6       30.33F
TRINIDAD       FAIR      65  29  25 CALM      30.29F
$$

COZ042>045-048>051-090-091-041800-
...NORTHEAST COLORADO...

CITY           SKY/WX    TMP DP  RH WIND       PRES   REMARKS
GREELEY ARPT   FAIR      66  37  34 CALM      30.24F
AKRON          FAIR      67  36  31 NE5       30.23F
BURLINGTON     FAIR      70  34  26 N6        30.22F
WRAY           NOT AVBL
STERLING       FAIR      68  41  37 CALM      30.20F
HOLYOKE        NOT AVBL
FORT MORGAN    FAIR      67  39  35 SW7       30.24S
$$

COZ086-089-092>099-041800-
...SOUTHEAST COLORADO...

CITY           SKY/WX    TMP DP  RH WIND       PRES   REMARKS
PUEBLO         FAIR      70  30  22 VRB3      30.24F
LA JUNTA       FAIR      72  35  25 SW8       30.23S
LAMAR          FAIR      71  41  33 NW7       30.19F
SPRINGFIELD      N/A     71  39  31 N9        30.23S
$$



USA.gov is the U.S. government's official web portal to all federal, state and local government web resources and services.